Globalstar
NORAD ID: 26081
Int'l Code: 2000-008A
Perigee: 1,419.9 km
Apogee: 1,421.6 km
Inclination: 52.0 °
Period: 114.1 minutes
Semi major axis: 7791 km
Launch date: February 8, 2000
Source: Globalstar (GLOB)
Comments: Global mobile satellite telecommunications services, offering both voice and data services from virtually anywhere in over 100 countries around the world.; went through Chapter 11 in 2002; acquired by ICO Global Communications (majority shareholder in 2003. In 2002 awarded contract to Space Systems/Loral for second generation constellation.
Two Line Element Set (TLE):
1 26081U 00008A 13141.52531030 -.00000055 00000-0 27213-3 0 1760
2 26081 051.9956 198.2928 0001115 262.9804 237.9866 12.62267616621113
Source: AFSPC
NASA's NSSDC Master Catalog entry for GLOBALSTAR M063